Location: Tom
(33.0437°N, 96.9452°W)
Time: 13:54:01
(UTC-05:00)

N. Korean satellite - Pass Details

Date: 29 December 2018
Orbit: 456 x 510 km, 97.2° (Epoch: 26 March)

Event Time Altitude Azimuth Distance (km) Brightness Sun altitude
Rises 06:25:48 0° 15° (NNE) 2,604 10.2 -13.2°
Reaches altitude 10° 06:27:55 10° 20° (NNE) 1,723 9.4 -12.8°
Maximum altitude 06:31:35 58° 100° (E) 595 7.3 -12.1°
Drops below altitude 10° 06:35:15 10° 180° (S) 1,724 9.6 -11.3°
Sets 06:37:22 0° 184° (S) 2,606 10.5 -10.9°
